[[{"header":{"parameterUnit":"m.s-1","parameterCategory":2,"la1":30.2991,"la2":30.254,"lo1":-89.0895,"lo2":-89.0444,"dy":0.0017,"dx":0.0017,"nx":28,"ny":28,"refTime":"2025-04-21T03:00:00:Z","depth":"0","parameterNumber":2,"parameterNumberName":"U-component_of_CURRENTS"},"data":[0,0,0,0,0,0,0,0,0,0,0,0,0,0,0,0,0,0,0,0,0,0,0,0,0,0,0,0,0,0,0,0,0,0,0,0,0,0,0,0,0,0,0,0,0,0,0,0,0,0,0,0,0,0,0,0,0,0,0.2487,0.2487,0,0.2406,0.2405,0.2404,0.2366,0.2366,0.2366,0.2366,0.2335,0.2334,0.2333,0,0,0,0,0,0,0,0,0,0,0,0,0,0.2551,0.255,0.2488,0.2487,0.2486,0.2406,0.2405,0.2404,0.2366,0.2366,0.2366,0.2366,0.2335,0.2334,0.2333,0,0,0,0,0,0,0,0,0,0,0,0,0,0.2501,0.255,0.2488,0.2458,0.2455,0.2407,0.2405,0.2404,0.2366,0.2366,0.2366,0.2367,0.2335,0.2334,0.2332,0.2317,0,0,0.2328,0.2327,0,0,0,0,0,0,0,0,0.2504,0.2498,0.2464,0.246,0.2457,0.2398,0.2416,0.2378,0.2366,0.2398,0.2366,0.2367,0.2361,0.2358,0.2339,0.2316,0.2314,0.2328,0.2327,0.2326,0.2326,0,0,0,0,0,0,0,0.2507,0.2501,0.2454,0.2463,0.2458,0.2429,0.2423,0.2408,0.2379,0.2395,0.2393,0.2386,0.2359,0.234,0.2338,0.2314,0.2328,0.2326,0.2325,0.2325,0.2331,0.2332,0,0,0,0,0,0,0.2523,0.2505,0.2456,0.2451,0.2483,0.2428,0.2421,0.2415,0.2378,0.2372,0.2386,0.2385,0.2343,0.234,0.2337,0.2357,0.2326,0.2325,0.2324,0.233,0.2331,0.2333,0,0,0,0,0,0,0.2525,0.252,0.246,0.2477,0.2468,0.2428,0.2421,0.2413,0.24,0.237,0.2366,0.2381,0.2343,0.2339,0.2338,0.2354,0.2324,0.2322,0.2329,0.233,0.2332,0.2372,0,0,0,0,0,0,0.2527,0.2521,0.2522,0.2479,0.2468,0.244,0.242,0.2412,0.2396,0.2393,0.2365,0.2361,0.2343,0.234,0.2336,0.2352,0.2321,0.2327,0.233,0.2331,0.237,0.2375,0.238,0,0,0,0,0,0.253,0.2533,0.2523,0.2517,0.2471,0.244,0.2432,0.2403,0.2396,0.2391,0.2379,0.2363,0.2351,0.234,0.2335,0.235,0.2326,0.2329,0.2331,0.2367,0.2374,0.238,0,0,0,0,0,0,0.2559,0.2528,0.2516,0.2509,0.2482,0.2435,0.2435,0.2408,0.2391,0.24,0.2369,0.2365,0.2374,0.2358,0.2346,0.2361,0.2339,0.2341,0.2368,0.2374,0.2379,0.2386,0.232,0,0,0,0,0,0.2568,0.2563,0.2526,0.2521,0.2518,0.2477,0.2462,0.2442,0.242,0.2412,0.2385,0.2376,0.2378,0.2373,0.2367,0.2366,0.2368,0.2377,0.2382,0.2387,0.2391,0.2415,0.2422,0.2341,0.2341,0.2341,0,0,0.2576,0.256,0.2556,0.2527,0.2511,0.2505,0.2469,0.2458,0.2447,0.2414,0.24,0.2392,0.2384,0.2389,0.2392,0.2377,0.2412,0.239,0.2393,0.2395,0.2418,0.2426,0.2433,0.2342,0.2342,0.2342,0,0,0.2594,0.2584,0.2589,0.2578,0.2559,0.2532,0.2533,0.2491,0.2473,0.2456,0.2443,0.2446,0.2423,0.2423,0.2423,0.2453,0.2442,0.2454,0.2478,0.2501,0.2508,0.2514,0.253,0.2537,0.2452,0.2452,0.2452,0,0.2607,0.2604,0.2584,0.2593,0.259,0.2551,0.2558,0.2532,0.2488,0.248,0.2464,0.2454,0.2442,0.2463,0.2473,0.2465,0.2473,0.2453,0.2508,0.2514,0.2519,0.2534,0.2541,0.2454,0.2454,0.2454,0.2454,0,0.2628,0.2631,0.264,0.2637,0.2632,0.2632,0.2606,0.259,0.2563,0.2531,0.2533,0.2515,0.2509,0.251,0.2497,0.2534,0.2526,0.2515,0.2491,0.253,0.2543,0.2549,0.2457,0.2457,0.2456,0.2455,0,0,0.2638,0.265,0.2654,0.266,0.2658,0.265,0.2655,0.2633,0.2626,0.2595,0.259,0.2592,0.2574,0.2574,0.2562,0.2576,0.2619,0.2562,0.2562,0.2574,0.267,0.2654,0.2659,0.2619,0.262,0.2621,0.2664,0,0.2656,0.2681,0.2681,0.2699,0.271,0.2698,0.2696,0.268,0.2653,0.2634,0.2628,0.262,0.2601,0.2601,0.2616,0.262,0.2639,0.2608,0.2633,0.2633,0.2612,0.2668,0.2572,0.2602,0.2671,0.2672,0.2673,0,0.2676,0.2686,0.2713,0.2724,0.2729,0.2732,0.273,0.2725,0.2707,0.2691,0.2692,0.267,0.2691,0.2663,0.27,0.2682,0.2683,0.2682,0.2683,0.2658,0.263,0.2574,0.2611,0.2536,0.2683,0.2682,0.2681,0,0.2685,0.2708,0.2726,0.2734,0.274,0.2748,0.275,0.2741,0.2739,0.273,0.273,0.2736,0.2747,0.2756,0.2752,0.273,0.279,0.2758,0.2745,0.2744,0.2662,0.2651,0.2626,0.2789,0.2789,0.2789,0.2789,0,0.27,0.2712,0.2728,0.2735,0.2744,0.2761,0.2764,0.2763,0.2773,0.2763,0.2763,0.2762,0.2772,0.2792,0.2782,0.2796,0.282,0.2765,0.2762,0.2674,0.2664,0.2593,0.2562,0.2791,0.279,0.279,0.279,0,0.2702,0.2716,0.2731,0.2745,0.2746,0.2758,0.2776,0.277,0.2795,0.279,0.2794,0.2808,0.2829,0.2841,0.2859,0.2839,0.2766,0.2843,0.2738,0.2722,0.2619,0.2594,0.249,0.2406,0.2829,0.2829,0.2829,0,0.2703,0.2712,0.2733,0.2725,0.2726,0.2741,0.2736,0.2771,0.2766,0.2798,0.279,0.283,0.2816,0.2866,0.2846,0.285,0.276,0.2764,0.2702,0.2617,0.2586,0.2483,0.2411,0.2608,0.2606,0.2605,0.2603,0,0.2693,0.2705,0.2713,0.2693,0.2688,0.2678,0.2681,0.2688,0.2711,0.2713,0.2707,0.2716,0.2779,0.2737,0.2777,0.2762,0.2626,0.2733,0.2669,0.244,0.2301,0.2217,0.2576,0.259,0.2592,0.2592,0.2593,0.2594,0.2678,0.2675,0.2668,0.2634,0.2622,0.257,0.2524,0.253,0.2509,0.2465,0.2571,0.254,0.2622,0.2655,0.2629,0.2549,0.253,0.2465,0.2452,0.2362,0.2245,0.2581,0.2578,0.2579,0.258,0.2581,0.2582,0,0.2625,0.2612,0.2591,0.2527,0.2453,0.2473,0.2431,0.2354,0.227,0.2313,0.2297,0.2338,0.2344,0.2396,0.2392,0.2288,0.216,0.2216,0.2039,0.1989,0.2313,0.2268,0.2168,0.2168,0.2168,0.2168,0.2168,0.2168,0.2594,0.2549,0.2518,0.2354,0.2295,0.215,0.2095,0.2016,0.2008,0.1937,0.194,0.2014,0.219,0.2247,0.2165,0.2095,0.1901,0.1817,0.1799,0.2031,0.2052,0.2072,0.2022,0.1872,0.1871,0.1378,0.1374,0.1371]},{"header":{"parameterUnit":"m.s-1","parameterCategory":2,"la1":30.2991,"la2":30.254,"lo1":-89.0895,"lo2":-89.0444,"dy":0.0017,"dx":0.0017,"nx":28,"ny":28,"refTime":"2025-04-21T03:00:00:Z","depth":"0","parameterNumber":3,"parameterNumberName":"V-component_of_CURRENTS"},"data":[0,0,0,0,0,0,0,0,0,0,0,0,0,0,0,0,0,0,0,0,0,0,0,0,0,0,0,0,0,0,0,0,0,0,0,0,0,0,0,0,0,0,0,0,0,0,0,0,0,0,0,0,0,0,0,0,0,0,0.0258,0.0258,0,0.0223,0.0223,0.0222,0.0189,0.0189,0.0189,0.0189,0.0115,0.0113,0.0111,0,0,0,0,0,0,0,0,0,0,0,0,0,0.0211,0.0212,0.0258,0.0258,0.0258,0.0223,0.0222,0.0222,0.0189,0.0189,0.0189,0.0189,0.0116,0.0113,0.0111,0,0,0,0,0,0,0,0,0,0,0,0,0,0.0205,0.0212,0.0258,0.0241,0.0239,0.0224,0.0222,0.0221,0.0189,0.0189,0.0189,0.0189,0.0116,0.0114,0.0111,0.0094,0,0,0.0102,0.0101,0,0,0,0,0,0,0,0,0.0206,0.0207,0.0243,0.0242,0.024,0.0214,0.0179,0.0178,0.0189,0.0203,0.0189,0.0189,0.0147,0.0142,0.013,0.0091,0.0087,0.0102,0.01,0.0099,0.0098,0,0,0,0,0,0,0,0.0206,0.0208,0.024,0.0243,0.0241,0.0205,0.0205,0.0178,0.0172,0.0202,0.0201,0.0203,0.0145,0.0133,0.0128,0.0086,0.0102,0.0099,0.0097,0.0096,0.0034,0.0034,0,0,0,0,0,0,0.0224,0.0209,0.0241,0.024,0.0227,0.0207,0.0206,0.0219,0.0173,0.0168,0.0204,0.0202,0.0138,0.0131,0.0125,0.0115,0.0099,0.0096,0.0094,0.0034,0.0034,0.0034,0,0,0,0,0,0,0.0223,0.0228,0.0243,0.0225,0.0226,0.0209,0.0223,0.0218,0.0211,0.0175,0.0168,0.0202,0.0138,0.0129,0.0106,0.0111,0.0095,0.0092,0.0034,0.0034,0.0034,0.0085,0,0,0,0,0,0,0.0222,0.0228,0.0236,0.0227,0.0227,0.0243,0.0223,0.0218,0.0214,0.0212,0.0171,0.0164,0.0137,0.0111,0.0103,0.0107,0.009,0.0033,0.0034,0.0034,0.0084,0.0087,0.009,0,0,0,0,0,0.0221,0.0238,0.0237,0.0241,0.0243,0.0244,0.024,0.0224,0.0215,0.0215,0.0186,0.0166,0.0106,0.0109,0.01,0.0102,0.0033,0.0034,0.0034,0.0082,0.0087,0.009,0,0,0,0,0,0,0.0216,0.0236,0.0235,0.0256,0.0255,0.024,0.0241,0.023,0.0207,0.0202,0.0165,0.0156,0.0137,0.0112,0.0116,0.0084,0.0067,0.0065,0.0107,0.011,0.0114,0.0131,0.0087,0,0,0,0,0,0.0222,0.0243,0.0249,0.0264,0.0269,0.0255,0.0252,0.0243,0.0226,0.0216,0.019,0.0158,0.013,0.0116,0.0088,0.0071,0.0049,0.0067,0.007,0.0073,0.0081,0.0051,0.0053,0.0034,0.0034,0.0034,0,0,0.0222,0.0238,0.0247,0.0265,0.0262,0.0274,0.0252,0.0254,0.0258,0.0211,0.0203,0.0169,0.0128,0.0109,0.0098,0.009,0.0067,0.0073,0.0076,0.0082,0.0051,0.0053,0.0055,0.0034,0.0034,0.0034,0,0,0.024,0.0251,0.0277,0.0284,0.0294,0.0286,0.0292,0.0284,0.0273,0.0262,0.0227,0.02,0.0162,0.0133,0.0113,0.0118,0.0086,0.0108,0.0139,0.011,0.0111,0.0112,0.0089,0.0088,0.011,0.011,0.011,0,0.0239,0.0279,0.028,0.0307,0.032,0.0298,0.0323,0.0307,0.029,0.0284,0.0268,0.021,0.0174,0.0148,0.0148,0.0127,0.0107,0.0128,0.0115,0.0116,0.0116,0.0092,0.0089,0.0112,0.0112,0.0112,0.0112,0,0.0281,0.0309,0.0325,0.0358,0.0364,0.0382,0.0374,0.0369,0.0352,0.0335,0.031,0.0258,0.0227,0.0207,0.0177,0.016,0.0144,0.0124,0.0108,0.0121,0.0094,0.0091,0.0116,0.0115,0.0114,0.0114,0,0,0.0291,0.0346,0.0351,0.0384,0.0397,0.0413,0.0415,0.0416,0.0424,0.0385,0.0387,0.0327,0.0297,0.0272,0.0228,0.0198,0.0177,0.0166,0.0163,0.015,0.0117,0.012,0.0116,0.0154,0.0154,0.0154,0.01,0,0.0325,0.0395,0.0405,0.046,0.0498,0.0485,0.0495,0.0487,0.0467,0.0458,0.0395,0.0377,0.0322,0.0309,0.0268,0.0204,0.017,0.0194,0.0101,0.0099,0.0105,0.0113,0.0142,0.0098,0.0096,0.0096,0.0095,0,0.0369,0.0414,0.0479,0.0536,0.055,0.0569,0.0591,0.0596,0.0565,0.0547,0.0507,0.0461,0.0409,0.0361,0.0258,0.0276,0.0203,0.0147,0.0143,0.0127,0.0095,0.0083,0.0091,-0.0007,0.009,0.009,0.0091,0,0.0399,0.0468,0.0526,0.0546,0.0595,0.0616,0.0632,0.0622,0.0643,0.0603,0.061,0.0529,0.0504,0.0402,0.0288,0.0273,0.0176,0.014,0.007,0.0069,0.0067,0.0067,-0.0024,0.0065,0.0065,0.0065,0.0065,0,0.0448,0.0495,0.0549,0.0584,0.0652,0.0664,0.0719,0.0713,0.0718,0.0747,0.0661,0.0667,0.0514,0.044,0.0318,0.0196,0.0199,0.0082,0.0057,0.0086,0.0088,-0.002,-0.0088,0.0063,0.0063,0.0064,0.0064,0,0.0484,0.0515,0.0591,0.0651,0.0674,0.0723,0.0793,0.083,0.0819,0.0853,0.0849,0.0777,0.0681,0.053,0.0369,0.0253,0.0065,0.0076,0.0125,0.0107,-0.0051,-0.0117,-0.0247,-0.0296,-0.001,-0.001,-0.001,0,0.0514,0.0556,0.0641,0.069,0.0723,0.0796,0.0847,0.0873,0.0918,0.0927,0.0951,0.0875,0.0833,0.0605,0.039,0.0187,0.0064,0.0069,0.004,-0.0049,-0.0141,-0.0194,-0.023,0.0053,0.0053,0.0054,0.0054,0,0.057,0.0594,0.0656,0.0749,0.0818,0.0901,0.0976,0.1035,0.1062,0.1092,0.1113,0.1084,0.0877,0.0687,0.0412,0.0265,0.0006,0.0068,-0.004,-0.0109,-0.0156,-0.0217,0.0078,0.0056,0.0056,0.0056,0.0056,0.0056,0.0605,0.0657,0.0726,0.0816,0.0894,0.0984,0.1049,0.1131,0.1211,0.1256,0.1238,0.1217,0.0956,0.0591,0.0383,0.0039,0.0008,-0.0072,-0.0147,-0.0194,-0.0234,0.0074,0.0036,0.0036,0.0035,0.0035,0.0035,0,0.0646,0.07,0.0788,0.0885,0.0961,0.0996,0.1116,0.1175,0.1265,0.1336,0.1354,0.1249,0.0927,0.0592,0.0128,-0.0125,-0.0225,-0.0267,-0.034,-0.037,-0.0105,-0.0092,-0.0137,-0.0137,-0.0137,-0.0137,-0.0137,-0.0137,0.0668,0.0746,0.0788,0.0909,0.0975,0.1061,0.1124,0.1219,0.1298,0.1374,0.1395,0.1405,0.1178,0.034,-0.0208,-0.0334,-0.0521,-0.0563,-0.067,-0.0488,-0.0476,-0.0464,-0.0467,-0.059,-0.0591,-0.0884,-0.0887,-0.0889]}],[{"header":{"parameterUnit":"m.s-1","parameterCategory":2,"la1":30.2991,"la2":30.254,"lo1":-89.0895,"lo2":-89.0444,"dy":0.0017,"dx":0.0017,"nx":28,"ny":28,"refTime":"2025-04-21T03:00:00:Z","depth":"2","parameterNumber":2,"parameterNumberName":"U-component_of_CURRENTS"},"data":[0,0,0,0,0,0,0,0,0,0,0,0,0,0,0,0,0,0,0,0,0,0,0,0,0,0,0,0,0,0,0,0,0,0,0,0,0,0,0,0,0,0,0,0,0,0,0,0,0,0,0,0,0,0,0,0,0,0,0.2081,0.2081,0,0.2098,0.2098,0.2098,0.2114,0.2114,0.2114,0.2114,0.2118,0.2118,0.2118,0,0,0,0,0,0,0,0,0,0,0,0,0,0.2081,0.208,0.2081,0.2081,0.2081,0.2098,0.2098,0.2098,0.2114,0.2114,0.2114,0.2114,0.2118,0.2118,0.2118,0,0,0,0,0,0,0,0,0,0,0,0,0,0.2088,0.208,0.2081,0.209,0.2091,0.2098,0.2098,0.2099,0.2114,0.2114,0.2114,0.2114,0.2118,0.2118,0.2118,0.2115,0,0,0.2118,0.2118,0,0,0,0,0,0,0,0,0.2088,0.2088,0.2089,0.209,0.2091,0.2103,0.21,0.2103,0.2114,0.2106,0.2114,0.2114,0.2111,0.2112,0.2116,0.2115,0.2116,0.2118,0.2118,0.2118,0.2118,0,0,0,0,0,0,0,0.2087,0.2088,0.2089,0.2089,0.209,0.21,0.2101,0.21,0.2108,0.2107,0.2108,0.2108,0.2112,0.2116,0.2116,0.2116,0.2118,0.2118,0.2118,0.2118,0.2164,0.2166,0,0,0,0,0,0,0.2082,0.2087,0.2088,0.2089,0.2089,0.21,0.2101,0.21,0.2108,0.211,0.2108,0.2109,0.2116,0.2116,0.2117,0.2156,0.2118,0.2118,0.2118,0.2163,0.2165,0.2166,0,0,0,0,0,0,0.2082,0.2082,0.2087,0.2088,0.2089,0.2099,0.2098,0.21,0.2116,0.2109,0.2111,0.2124,0.2116,0.2117,0.2133,0.2154,0.2118,0.2118,0.2162,0.2164,0.2165,0.2207,0,0,0,0,0,0,0.2082,0.2082,0.2091,0.2087,0.2089,0.2101,0.2098,0.21,0.2115,0.2117,0.2123,0.2123,0.2116,0.2133,0.2133,0.2154,0.2119,0.216,0.2163,0.2165,0.2204,0.221,0.2215,0,0,0,0,0,0.2082,0.2084,0.2091,0.2092,0.2097,0.2102,0.2104,0.2112,0.2116,0.2127,0.2134,0.2123,0.2147,0.2134,0.2133,0.2155,0.2159,0.2162,0.2165,0.2202,0.2209,0.2215,0,0,0,0,0,0,0.2087,0.2086,0.2094,0.2096,0.2106,0.2104,0.2118,0.212,0.2135,0.2143,0.2134,0.2135,0.216,0.2152,0.2137,0.2176,0.2153,0.2156,0.2182,0.2188,0.2194,0.2198,0.2119,0,0,0,0,0,0.2093,0.2098,0.21,0.2107,0.2113,0.212,0.2127,0.2133,0.2139,0.2147,0.2147,0.2156,0.2169,0.2174,0.2182,0.2198,0.2199,0.2214,0.2219,0.2224,0.2228,0.2254,0.2262,0.2175,0.2175,0.2175,0,0,0.2097,0.2098,0.2102,0.2109,0.212,0.2132,0.2125,0.2141,0.2157,0.2144,0.2169,0.2175,0.2179,0.2203,0.2213,0.2199,0.225,0.2227,0.2231,0.2233,0.2258,0.2266,0.2274,0.2177,0.2176,0.2176,0,0,0.2107,0.2112,0.2124,0.213,0.2147,0.2152,0.2159,0.2167,0.218,0.2201,0.2202,0.2222,0.2232,0.2243,0.2249,0.2289,0.2281,0.2294,0.2322,0.2347,0.2354,0.2361,0.2375,0.2382,0.2294,0.2294,0.2294,0,0.2116,0.2127,0.2129,0.2141,0.2153,0.2162,0.2181,0.2192,0.2205,0.2222,0.2216,0.2253,0.2254,0.2289,0.2305,0.2302,0.2311,0.2294,0.2354,0.236,0.2366,0.2379,0.2387,0.2296,0.2296,0.2296,0.2296,0,0.2128,0.2147,0.2154,0.2174,0.2187,0.2205,0.2218,0.2238,0.2254,0.2265,0.2305,0.231,0.2331,0.2338,0.2332,0.2378,0.237,0.236,0.2335,0.2378,0.2389,0.2396,0.23,0.2299,0.2298,0.2298,0,0,0.2124,0.2159,0.2162,0.2183,0.2209,0.2217,0.2252,0.2285,0.2308,0.2329,0.2364,0.239,0.2395,0.2403,0.2403,0.2422,0.247,0.2411,0.2411,0.2422,0.2525,0.2492,0.2496,0.2472,0.2473,0.2474,0.2516,0,0.2142,0.2168,0.2185,0.2222,0.224,0.2264,0.2289,0.2318,0.2346,0.2377,0.2401,0.243,0.242,0.2435,0.2457,0.2469,0.249,0.2459,0.2485,0.2486,0.2449,0.2504,0.2305,0.2323,0.2523,0.2524,0.2525,0,0.2149,0.2167,0.2205,0.2248,0.2258,0.2283,0.2331,0.2362,0.2409,0.2426,0.2466,0.2477,0.252,0.2498,0.2547,0.253,0.2535,0.2537,0.2539,0.2498,0.2466,0.2314,0.2328,0.2536,0.2535,0.2534,0.2534,0,0.214,0.2182,0.2216,0.2227,0.2272,0.2303,0.2338,0.2382,0.2416,0.247,0.2492,0.2535,0.2565,0.2584,0.2597,0.2578,0.2644,0.2614,0.2589,0.2586,0.2416,0.2396,0.265,0.265,0.265,0.265,0.265,0,0.2149,0.2168,0.2215,0.2232,0.2266,0.2307,0.2364,0.239,0.2452,0.2479,0.2524,0.2548,0.259,0.2627,0.2625,0.2638,0.2671,0.2608,0.2602,0.2425,0.2407,0.2586,0.2578,0.2651,0.2651,0.2651,0.265,0,0.2131,0.2163,0.2195,0.225,0.2268,0.2296,0.2378,0.2411,0.2468,0.2509,0.2528,0.2586,0.2626,0.2662,0.2696,0.2675,0.2685,0.2679,0.2468,0.2437,0.2599,0.2592,0.265,0.2649,0.2649,0.2648,0.2648,0,0.2121,0.214,0.2199,0.2211,0.2241,0.2297,0.233,0.2407,0.2433,0.2513,0.2515,0.2592,0.2605,0.2668,0.2646,0.2651,0.2691,0.2468,0.2394,0.2614,0.2603,0.2597,0.2592,0.218,0.2176,0.2173,0.217,0,0.2096,0.2122,0.2162,0.2179,0.2216,0.2249,0.23,0.2313,0.2385,0.2415,0.2437,0.2471,0.2544,0.2463,0.2499,0.2468,0.2451,0.24,0.2688,0.2221,0.2177,0.2165,0.2173,0.214,0.2143,0.2145,0.2147,0.2148,0.2078,0.2079,0.2117,0.2132,0.2168,0.2149,0.214,0.2181,0.2192,0.218,0.2288,0.2269,0.2316,0.2262,0.2199,0.2154,0.232,0.2206,0.2213,0.2225,0.2173,0.2132,0.2075,0.2078,0.208,0.2082,0.2084,0,0.2037,0.2022,0.2042,0.2036,0.203,0.2076,0.2069,0.2024,0.1974,0.2022,0.2033,0.1888,0.1858,0.1903,0.1795,0.1809,0.1758,0.1729,0.1637,0.1671,0.17,0.1618,0.1374,0.1372,0.1369,0.1367,0,0,0.1983,0.1971,0.1966,0.1889,0.1891,0.1824,0.1794,0.174,0.1732,0.1663,0.1646,0.1779,0.1863,0.1589,0.1567,0.1449,0.1539,0.1391,0.1969,0.1897,0.1922,0.1997,0.1912,0,0,0,0,0]},{"header":{"parameterUnit":"m.s-1","parameterCategory":2,"la1":30.2991,"la2":30.254,"lo1":-89.0895,"lo2":-89.0444,"dy":0.0017,"dx":0.0017,"nx":28,"ny":28,"refTime":"2025-04-21T03:00:00:Z","depth":"2","parameterNumber":3,"parameterNumberName":"V-component_of_CURRENTS"},"data":[0,0,0,0,0,0,0,0,0,0,0,0,0,0,0,0,0,0,0,0,0,0,0,0,0,0,0,0,0,0,0,0,0,0,0,0,0,0,0,0,0,0,0,0,0,0,0,0,0,0,0,0,0,0,0,0,0,0,0.0121,0.0121,0,0.0101,0.01,0.01,0.007,0.007,0.007,0.007,0.0003,0.0001,-0.0,0,0,0,0,0,0,0,0,0,0,0,0,0,0.0071,0.0072,0.0121,0.0121,0.0121,0.0101,0.01,0.0099,0.007,0.007,0.007,0.007,0.0003,0.0002,-0.0,0,0,0,0,0,0,0,0,0,0,0,0,0,0.0073,0.0073,0.0121,0.0106,0.0105,0.0101,0.01,0.0099,0.007,0.007,0.007,0.0069,0.0004,0.0002,-0.0,-0.0008,0,0,-0.0008,-0.0009,0,0,0,0,0,0,0,0,0.0073,0.0075,0.0108,0.0107,0.0106,0.009,0.0058,0.0062,0.007,0.008,0.007,0.0069,0.003,0.0026,0.0019,-0.0011,-0.0014,-0.0008,-0.0009,-0.001,-0.0011,0,0,0,0,0,0,0,0.0073,0.0075,0.011,0.0108,0.0107,0.0079,0.0079,0.0058,0.0054,0.0079,0.0078,0.0081,0.0029,0.0021,0.0017,-0.0015,-0.0008,-0.001,-0.0011,-0.0012,-0.0056,-0.0056,0,0,0,0,0,0,0.0086,0.0076,0.011,0.0109,0.0092,0.0081,0.0081,0.0093,0.0055,0.005,0.0081,0.0079,0.0025,0.002,0.0014,0.0011,-0.001,-0.0012,-0.0014,-0.0057,-0.0056,-0.0056,0,0,0,0,0,0,0.0085,0.009,0.0111,0.0093,0.0095,0.0083,0.0096,0.0093,0.0088,0.0058,0.0051,0.0081,0.0025,0.0018,-0.0,0.0008,-0.0014,-0.0016,-0.0057,-0.0057,-0.0056,-0.0001,0,0,0,0,0,0,0.0084,0.009,0.0098,0.0095,0.0096,0.0116,0.0097,0.0093,0.0092,0.009,0.0055,0.0049,0.0024,0.0003,-0.0003,0.0004,-0.0018,-0.0057,-0.0057,-0.0056,-0.0003,0.0002,0.0005,0,0,0,0,0,0.0082,0.0098,0.0098,0.0102,0.011,0.0117,0.0115,0.0102,0.0093,0.0095,0.007,0.005,0.0002,0.0002,-0.0005,0.0001,-0.0057,-0.0057,-0.0056,-0.0005,0.0001,0.0005,0,0,0,0,0,0,0.0076,0.0096,0.0097,0.0117,0.0121,0.0113,0.0114,0.0108,0.009,0.0084,0.0053,0.0044,0.0031,0.0008,0.0009,-0.0011,-0.0031,-0.0032,0.0011,0.0015,0.0019,0.0034,-0.0019,0,0,0,0,0,0.0081,0.01,0.011,0.0125,0.0129,0.0122,0.0122,0.0117,0.0105,0.0097,0.0076,0.005,0.0028,0.0016,-0.0007,-0.0017,-0.004,-0.0018,-0.0014,-0.001,-0.0004,-0.0032,-0.003,-0.0054,-0.0054,-0.0054,0,0,0.008,0.0096,0.0104,0.0125,0.0124,0.014,0.012,0.0126,0.0136,0.0092,0.0092,0.0063,0.0028,0.0017,0.0009,-0.0001,-0.0015,-0.001,-0.0006,-0.0001,-0.0031,-0.0029,-0.0027,-0.0054,-0.0054,-0.0054,0,0,0.0095,0.0105,0.0127,0.0138,0.015,0.0149,0.0155,0.0155,0.015,0.0147,0.0117,0.0096,0.0067,0.0045,0.0029,0.0041,0.0007,0.0032,0.0065,0.0037,0.0039,0.0041,0.0018,0.0017,0.0035,0.0035,0.0035,0,0.0092,0.013,0.0132,0.0158,0.0172,0.0159,0.0185,0.0179,0.0172,0.0171,0.0154,0.0112,0.0081,0.0067,0.0069,0.0051,0.003,0.0051,0.0043,0.0044,0.0045,0.0021,0.0019,0.0037,0.0037,0.0037,0.0037,0,0.013,0.0157,0.017,0.0204,0.0215,0.0234,0.0236,0.0239,0.023,0.0222,0.0207,0.0164,0.0141,0.0125,0.01,0.009,0.0073,0.0052,0.0034,0.0051,0.0024,0.0021,0.0041,0.004,0.004,0.0039,0,0,0.0133,0.0188,0.0193,0.0223,0.0245,0.0262,0.0276,0.029,0.0303,0.0277,0.0286,0.024,0.0214,0.0194,0.0157,0.013,0.0113,0.0097,0.0095,0.0081,0.0055,0.0049,0.0045,0.009,0.009,0.009,0.0037,0,0.0164,0.0231,0.0244,0.0298,0.0334,0.0331,0.0351,0.0355,0.0346,0.0348,0.0298,0.0287,0.0241,0.023,0.0196,0.0136,0.0107,0.013,0.0036,0.0034,0.0031,0.0042,0.0062,0.0017,0.0034,0.0033,0.0033,0,0.0198,0.0246,0.031,0.0366,0.038,0.0401,0.0434,0.0447,0.0436,0.0427,0.04,0.0363,0.0323,0.0279,0.0188,0.0204,0.0137,0.0085,0.0081,0.0055,0.0022,0.0001,0.0011,0.0028,0.0028,0.0028,0.0029,0,0.0219,0.0288,0.0346,0.0367,0.0423,0.0444,0.0463,0.047,0.0494,0.0474,0.0483,0.0423,0.0401,0.0311,0.0207,0.0197,0.0104,0.0074,0.0004,0.0003,-0.0008,-0.001,0.0008,0.0008,0.0008,0.0008,0.0008,0,0.0255,0.0301,0.0363,0.0397,0.0464,0.0479,0.0533,0.0538,0.0553,0.0585,0.0524,0.0534,0.0408,0.0342,0.0233,0.0118,0.0123,0.0016,-0.0009,0.0012,0.0013,-0.0003,-0.0003,0.0006,0.0006,0.0007,0.0007,0,0.0274,0.0313,0.0387,0.0455,0.0479,0.0524,0.0591,0.0628,0.0628,0.0666,0.0665,0.0621,0.0537,0.0407,0.0265,0.0162,0.0044,-0.0002,0.0036,0.0016,-0.0047,-0.0044,-0.0083,-0.0084,-0.0084,-0.0085,-0.0085,0,0.0294,0.0334,0.0428,0.0479,0.0513,0.0581,0.0632,0.0662,0.0705,0.0723,0.0747,0.0687,0.0656,0.0452,0.0266,0.0082,0.0049,-0.0029,-0.0049,-0.0035,-0.0056,-0.0052,-0.0048,-0.0045,-0.0045,-0.0045,-0.0045,0,0.0335,0.0362,0.0428,0.0527,0.0595,0.0672,0.074,0.0789,0.0821,0.0856,0.0882,0.0861,0.068,0.0508,0.0261,0.0134,0.0002,-0.0035,-0.0032,-0.002,-0.0002,-0.0021,-0.0019,-0.0045,-0.0045,-0.0045,-0.0045,-0.0045,0.0364,0.0414,0.0494,0.0586,0.0663,0.0743,0.08,0.0874,0.0947,0.0991,0.0978,0.0948,0.0755,0.045,0.0232,0.0003,0.0012,-0.0078,-0.0077,-0.0076,-0.0057,-0.004,-0.0087,-0.0087,-0.0087,-0.0087,-0.0088,0,0.0411,0.0463,0.0547,0.065,0.0722,0.0761,0.0862,0.0912,0.0996,0.1051,0.1072,0.0889,0.0709,0.0481,0.0149,-0.0051,-0.0069,-0.012,-0.0099,-0.0096,-0.0095,-0.0077,-0.0113,-0.0114,-0.0114,-0.0115,0,0,0.0442,0.0521,0.056,0.0678,0.0744,0.0828,0.0882,0.096,0.1019,0.1063,0.1061,0.1049,0.0785,0.0537,0.0269,0.0076,0.0032,0.0035,0.0079,0.0138,0.0142,-0.0045,-0.0012,0,0,0,0,0]}],[{"header":{"parameterUnit":"m.s-1","parameterCategory":2,"la1":30.2991,"la2":30.254,"lo1":-89.0895,"lo2":-89.0444,"dy":0.0017,"dx":0.0017,"nx":28,"ny":28,"refTime":"2025-04-21T03:00:00:Z","depth":"4","parameterNumber":2,"parameterNumberName":"U-component_of_CURRENTS"},"data":[0,0,0,0,0,0,0,0,0,0,0,0,0,0,0,0,0,0,0,0,0,0,0,0,0,0,0,0,0,0,0,0,0,0,0,0,0,0,0,0,0,0,0,0,0,0,0,0,0,0,0,0,0,0,0,0,0,0,0.1204,0.1205,0,0.1304,0.1305,0.1306,0.1373,0.1373,0.1374,0.1374,0.1449,0.1451,0.1452,0,0,0,0,0,0,0,0,0,0,0,0,0,0.1117,0.1118,0.1203,0.1205,0.1206,0.1303,0.1305,0.1306,0.1372,0.1373,0.1374,0.1374,0.1449,0.1451,0.1453,0,0,0,0,0,0,0,0,0,0,0,0,0,0.1178,0.1118,0.1203,0.1252,0.1257,0.1303,0.1305,0.1306,0.1372,0.1373,0.1374,0.1375,0.1448,0.1451,0.1453,0.1451,0,0,0.146,0.1461,0,0,0,0,0,0,0,0,0.1175,0.1181,0.1243,0.1248,0.1255,0.1327,0.1302,0.1354,0.1372,0.1328,0.1374,0.1375,0.1406,0.1412,0.1428,0.1454,0.1457,0.146,0.1461,0.1462,0.1463,0,0,0,0,0,0,0,0.117,0.1178,0.1242,0.1245,0.1251,0.1284,0.1294,0.1312,0.136,0.1332,0.1337,0.1349,0.1409,0.1426,0.143,0.1458,0.146,0.1462,0.1463,0.1464,0.1575,0.1577,0,0,0,0,0,0,0.1156,0.1173,0.1239,0.1245,0.1217,0.1285,0.1295,0.1302,0.1361,0.1371,0.1348,0.1352,0.1422,0.1428,0.1433,0.1514,0.1462,0.1464,0.1466,0.1574,0.1576,0.1578,0,0,0,0,0,0,0.1154,0.1161,0.1235,0.1213,0.1225,0.1286,0.1293,0.1304,0.1352,0.1374,0.1383,0.1389,0.1422,0.143,0.148,0.1514,0.1465,0.1467,0.1572,0.1574,0.1577,0.1624,0,0,0,0,0,0,0.1151,0.1159,0.1172,0.1211,0.1225,0.128,0.1293,0.1305,0.1357,0.1363,0.1411,0.1417,0.1424,0.1477,0.1483,0.1517,0.1469,0.157,0.1573,0.1576,0.1621,0.1628,0.1634,0,0,0,0,0,0.1147,0.1155,0.1171,0.118,0.1236,0.1281,0.1292,0.1337,0.1358,0.1383,0.142,0.1417,0.15,0.148,0.1486,0.1522,0.1569,0.1572,0.1576,0.1618,0.1627,0.1634,0,0,0,0,0,0,0.1127,0.1164,0.1182,0.1203,0.1248,0.1293,0.132,0.1353,0.1403,0.1416,0.1437,0.1446,0.1503,0.1506,0.1483,0.1563,0.1534,0.1539,0.1564,0.1573,0.1579,0.1579,0.1471,0,0,0,0,0,0.1126,0.1145,0.1186,0.121,0.1228,0.1281,0.131,0.1344,0.1387,0.1412,0.1449,0.1485,0.1517,0.154,0.1566,0.1608,0.161,0.1636,0.1643,0.1648,0.1653,0.1688,0.1698,0.1589,0.1589,0.1589,0,0,0.1128,0.115,0.1163,0.1208,0.1244,0.1279,0.1301,0.1353,0.1398,0.141,0.1485,0.1512,0.1534,0.1585,0.1611,0.1596,0.1681,0.1653,0.1658,0.1659,0.1692,0.1703,0.1712,0.1592,0.1591,0.1591,0,0,0.1131,0.1157,0.1172,0.1206,0.1263,0.1298,0.1318,0.1383,0.1427,0.1495,0.1516,0.1565,0.162,0.1644,0.166,0.1719,0.1715,0.1733,0.1769,0.1803,0.1812,0.182,0.1833,0.1842,0.1737,0.1737,0.1737,0,0.1134,0.1155,0.1188,0.1211,0.1244,0.1307,0.1339,0.1392,0.1473,0.1515,0.1526,0.1627,0.1646,0.1705,0.173,0.1735,0.1747,0.1734,0.1811,0.1819,0.1826,0.1838,0.1847,0.174,0.1739,0.1739,0.1739,0,0.1141,0.1171,0.1185,0.1234,0.1274,0.1316,0.1382,0.1449,0.1512,0.1563,0.1653,0.1688,0.1747,0.1763,0.1767,0.1833,0.1823,0.1814,0.1787,0.184,0.1849,0.1857,0.1744,0.1743,0.1742,0.1741,0,0,0.1115,0.1177,0.1186,0.1215,0.1291,0.1326,0.1408,0.1495,0.1561,0.1642,0.172,0.1784,0.1817,0.1837,0.1854,0.1884,0.1945,0.1878,0.1879,0.1885,0.2015,0.1887,0.1883,0.1954,0.1956,0.1958,0.1999,0,0.1118,0.1158,0.1194,0.1255,0.1284,0.1364,0.143,0.1521,0.1609,0.1702,0.1763,0.1838,0.1841,0.1879,0.1914,0.1942,0.1971,0.1934,0.1968,0.1968,0.1843,0.189,0.1964,0.2005,0.2007,0.2008,0.2009,0,0.1103,0.1141,0.119,0.127,0.1291,0.1343,0.1469,0.1537,0.1671,0.1741,0.1833,0.1887,0.1965,0.1951,0.2027,0.2008,0.202,0.2029,0.2031,0.1899,0.1856,0.1943,0.2024,0.2023,0.2022,0.2021,0.202,0,0.1058,0.1134,0.1177,0.1205,0.1307,0.1361,0.1425,0.1555,0.1629,0.1774,0.1846,0.194,0.2002,0.2039,0.2079,0.2064,0.2143,0.212,0.2012,0.2003,0.2084,0.2075,0.2166,0.2166,0.2166,0.2166,0.2166,0,0.1023,0.1063,0.1168,0.119,0.1264,0.1338,0.143,0.1523,0.1653,0.1735,0.186,0.1932,0.2032,0.2094,0.2104,0.2084,0.2168,0.2023,0.2009,0.2103,0.2096,0.2089,0.208,0.2168,0.2167,0.2167,0.2167,0,0.0953,0.102,0.1081,0.1197,0.124,0.1293,0.1421,0.1485,0.1623,0.1738,0.1789,0.1951,0.2023,0.2097,0.2159,0.2104,0.2102,0.2073,0.2172,0.2162,0.193,0.1923,0.1946,0.1942,0.1938,0.1935,0.1933,0,0.0919,0.0944,0.1071,0.1122,0.1179,0.1269,0.1327,0.146,0.153,0.1728,0.177,0.1907,0.1994,0.1981,0.2057,0.2065,0.2043,0.2025,0.1969,0.1926,0.191,0.1908,0.1906,0.1927,0.1926,0.1925,0.1925,0,0.0863,0.0917,0.0967,0.1069,0.1143,0.1204,0.1299,0.1336,0.1489,0.1627,0.1714,0.1772,0.1851,0.1897,0.1926,0.1926,0.2026,0.1988,0.1995,0.1942,0.1904,0.1891,0.1893,0.1913,0.1914,0.1915,0.1916,0,0.0829,0.0848,0.0929,0.1011,0.1095,0.1129,0.1178,0.1255,0.1331,0.1544,0.156,0.1704,0.1827,0.1825,0.1848,0.1845,0.181,0.1742,0.1761,0.1775,0.17,0.1626,0.154,0,0,0,0,0,0.0796,0.081,0.0873,0.0949,0.1021,0.107,0.1166,0.1217,0.1357,0.1375,0.1468,0.1534,0.1592,0.1663,0.1624,0.1765,0.1811,0.1711,0.1741,0.1846,0.186,0.1788,0,0,0,0,0,0,0.0776,0.0819,0.0842,0.0883,0.0921,0.0981,0.1029,0.1116,0.1134,0.1286,0.1323,0.1441,0.1515,0.1602,0.1598,0.1617,0.1602,0.1797,0.1792,0.1838,0.1851,0.1862,0.1793,0,0,0,0,0]},{"header":{"parameterUnit":"m.s-1","parameterCategory":2,"la1":30.2991,"la2":30.254,"lo1":-89.0895,"lo2":-89.0444,"dy":0.0017,"dx":0.0017,"nx":28,"ny":28,"refTime":"2025-04-21T03:00:00:Z","depth":"4","parameterNumber":3,"parameterNumberName":"V-component_of_CURRENTS"},"data":[0,0,0,0,0,0,0,0,0,0,0,0,0,0,0,0,0,0,0,0,0,0,0,0,0,0,0,0,0,0,0,0,0,0,0,0,0,0,0,0,0,0,0,0,0,0,0,0,0,0,0,0,0,0,0,0,0,0,0.012,0.0119,0,0.0098,0.0098,0.0098,0.0071,0.0071,0.0071,0.007,0.0019,0.0018,0.0017,0,0,0,0,0,0,0,0,0,0,0,0,0,0.0091,0.0092,0.012,0.0119,0.0119,0.0098,0.0098,0.0097,0.0071,0.0071,0.0071,0.007,0.0019,0.0018,0.0017,0,0,0,0,0,0,0,0,0,0,0,0,0,0.0088,0.0092,0.012,0.0105,0.0104,0.0098,0.0098,0.0097,0.0071,0.0071,0.0071,0.007,0.002,0.0018,0.0016,0.0013,0,0,0.0011,0.001,0,0,0,0,0,0,0,0,0.0089,0.0089,0.0107,0.0106,0.0105,0.0089,0.0069,0.0068,0.0071,0.0082,0.007,0.007,0.0041,0.0037,0.0032,0.0011,0.0008,0.0011,0.001,0.0009,0.0009,0,0,0,0,0,0,0,0.0089,0.009,0.0109,0.0107,0.0106,0.0084,0.0083,0.0069,0.0062,0.0081,0.0079,0.008,0.004,0.0034,0.0031,0.0008,0.0011,0.0009,0.0008,0.0008,-0.0021,-0.002,0,0,0,0,0,0,0.0098,0.009,0.011,0.0109,0.0098,0.0085,0.0084,0.0093,0.0062,0.0058,0.008,0.0079,0.0037,0.0033,0.0029,0.0031,0.0009,0.0008,0.0007,-0.0021,-0.0021,-0.002,0,0,0,0,0,0,0.0098,0.0101,0.0111,0.01,0.01,0.0087,0.0096,0.0092,0.0088,0.0063,0.0057,0.008,0.0036,0.0031,0.0019,0.0029,0.0007,0.0005,-0.0021,-0.0021,-0.002,0.0031,0,0,0,0,0,0,0.0097,0.0101,0.0108,0.0101,0.0101,0.0114,0.0096,0.0092,0.009,0.0088,0.0061,0.0055,0.0036,0.0021,0.0017,0.0026,0.0004,-0.0022,-0.0021,-0.0021,0.0029,0.0033,0.0036,0,0,0,0,0,0.0097,0.011,0.0109,0.0111,0.0112,0.0114,0.0112,0.0099,0.0091,0.0093,0.0073,0.0056,0.0021,0.002,0.0015,0.0024,-0.0022,-0.0021,-0.0021,0.0027,0.0032,0.0036,0,0,0,0,0,0,0.0098,0.0108,0.0107,0.0122,0.0121,0.0111,0.0111,0.0104,0.009,0.0086,0.006,0.0054,0.0046,0.0027,0.0027,0.0016,-0.0003,-0.0003,0.0035,0.0039,0.0043,0.0054,0.0002,0,0,0,0,0,0.0105,0.0118,0.012,0.0131,0.0133,0.0123,0.0121,0.0114,0.0103,0.0097,0.008,0.006,0.0044,0.0036,0.0019,0.0015,-0.0007,0.0016,0.002,0.0023,0.0028,0.0002,0.0004,-0.0018,-0.0018,-0.0018,0,0,0.0106,0.0115,0.0121,0.0132,0.0129,0.0139,0.012,0.0122,0.013,0.0093,0.0095,0.0072,0.0046,0.004,0.0035,0.0026,0.0018,0.0024,0.0027,0.003,0.0003,0.0005,0.0007,-0.0018,-0.0018,-0.0018,0,0,0.0121,0.0127,0.0144,0.0149,0.0154,0.015,0.0154,0.0148,0.0145,0.0144,0.0119,0.0104,0.0083,0.0067,0.0056,0.007,0.0039,0.0064,0.0093,0.0068,0.007,0.0071,0.0048,0.0047,0.0067,0.0067,0.0067,0,0.0122,0.0149,0.0147,0.0166,0.0175,0.0159,0.0178,0.0173,0.0165,0.0164,0.015,0.0119,0.0097,0.009,0.0094,0.008,0.0059,0.008,0.0074,0.0075,0.0075,0.0051,0.0049,0.0069,0.0069,0.0069,0.0069,0,0.0151,0.0173,0.0183,0.0206,0.0213,0.0225,0.0224,0.0226,0.0217,0.021,0.0201,0.0169,0.0151,0.0141,0.0122,0.0117,0.0099,0.0082,0.0065,0.008,0.0054,0.0051,0.0073,0.0072,0.0071,0.0071,0,0,0.0157,0.0197,0.0201,0.0223,0.0237,0.0247,0.0261,0.027,0.0279,0.026,0.0267,0.0238,0.0216,0.0201,0.0173,0.0152,0.0136,0.0122,0.012,0.0104,0.0081,0.007,0.0065,0.0116,0.0116,0.0116,0.0062,0,0.0181,0.023,0.0242,0.0282,0.0307,0.0304,0.0321,0.0324,0.0316,0.0316,0.0281,0.0273,0.024,0.0231,0.0205,0.0153,0.013,0.0152,0.0064,0.0061,0.0053,0.0062,0.0115,0.006,0.0059,0.0058,0.0058,0,0.0209,0.0241,0.0289,0.0332,0.0341,0.036,0.0382,0.0394,0.0386,0.0379,0.0359,0.0331,0.0302,0.0268,0.0192,0.0207,0.0151,0.0107,0.0104,0.0075,0.0045,0.0038,0.0052,0.0053,0.0053,0.0053,0.0054,0,0.0221,0.0274,0.0316,0.0331,0.0372,0.0391,0.0406,0.0412,0.0427,0.0415,0.0418,0.0376,0.0356,0.0283,0.0198,0.0193,0.0108,0.0088,0.0025,0.0023,0.0026,0.0025,0.0032,0.0032,0.0032,0.0032,0.0032,0,0.0247,0.0281,0.0327,0.0351,0.0398,0.0414,0.0451,0.0458,0.0469,0.0487,0.045,0.045,0.0358,0.0301,0.0214,0.0115,0.0119,0.0033,0.001,0.0049,0.0051,0.0024,0.0024,0.003,0.0031,0.0031,0.0031,0,0.0258,0.0288,0.0338,0.0389,0.0408,0.0438,0.0487,0.051,0.0516,0.0536,0.0536,0.0505,0.0432,0.0334,0.0217,0.0141,0.0042,0.0003,0.0058,0.0038,-0.0031,-0.0028,-0.007,-0.0071,-0.0072,-0.0072,-0.0073,0,0.027,0.0297,0.0363,0.0393,0.0419,0.0467,0.0501,0.0528,0.0554,0.0568,0.0579,0.0531,0.0491,0.0329,0.0218,0.0057,0.0028,-0.0028,-0.0035,-0.0023,-0.0041,-0.0037,-0.0033,-0.0074,-0.0074,-0.0074,-0.0074,0,0.0287,0.0308,0.035,0.0413,0.0458,0.051,0.0558,0.0582,0.061,0.062,0.0614,0.0539,0.0458,0.0335,0.0211,0.0092,0.0007,-0.0035,-0.0035,-0.0042,-0.0028,-0.0044,-0.004,-0.0077,-0.0076,-0.0076,-0.0076,0,0.0299,0.0324,0.0375,0.0431,0.0486,0.0536,0.0563,0.0598,0.0626,0.0641,0.0639,0.0556,0.0515,0.0352,0.0238,0.0123,0.0086,0.0035,0.0031,0.0032,0.0074,0.0108,0.0085,0,0,0,0,0,0.0312,0.034,0.0389,0.0449,0.0502,0.0535,0.0596,0.0618,0.0648,0.0648,0.0645,0.057,0.0415,0.0358,0.0241,0.0209,0.0055,0.0065,-0.0008,-0.0089,-0.0087,-0.0057,0,0,0,0,0,0,0.0319,0.0365,0.0388,0.0451,0.0491,0.055,0.0589,0.0612,0.0615,0.0629,0.0557,0.0525,0.0383,0.0481,0.0235,0.0202,0.0135,-0.0001,-0.0004,-0.0091,-0.0088,-0.0086,-0.0054,0,0,0,0,0]}]]